Location: Acton
(51.4942°N, 0.2232°W)
Time: 23:03:13
(UTC+00:00)

Cosmos 1025 Rocket - Pass Details

Date: 18 September 2020
Orbit: 594 x 617 km, 82.5° (Epoch: 31 October)

Event Time Altitude Azimuth Distance (km) Brightness Sun altitude
Rises 18:44:29 0° 356° (N) 2,886 6.7 -6.5°
Reaches altitude 10° 18:46:55 10° 6° (N) 1,980 5.7 -6.9°
Maximum altitude 18:50:52 32° 70° (ENE) 1,058 3.8 -7.5°
Drops below altitude 10° 18:54:49 10° 135° (SE) 1,977 5.1 -8.1°
Enters shadow 18:56:10 - 141° (SE) 2,474 5.7 -8.3°
